Location: Newark
(39.0083°N, 20.7336°E)
Time: 17:55:25
(UTC+00:00)

ISS - Pass Details

Date: 02 October 2021
Orbit: 418 x 423 km, 51.6° (Epoch: 18 October)

Event Time Altitude Azimuth Distance (km) Brightness Sun altitude
Rises 17:31:16 0° 315° (NW) 2,365 1.0 -15.0°
Reaches altitude 10° 17:33:33 10° 327° (NNW) 1,500 -0.4 -15.5°
Maximum altitude 17:36:31 28° 29° (NNE) 825 -2.5 -16.0°
Enters shadow 17:37:03 26° 46° (NE) 855 -2.5 -16.1°
